| time (UTC) | temp F | wind direction | speed MPH | gust MPH | rain 1hr in | rain 24hr in | rain mn in | humidity % | barometer mb |
| 20260902073058 | 86 | 258 | 2.0 | 7.0 | 0.00 | 0.00 | 0.00 | 79 | 1014.1 |
| 20260902071554 | 86 | 225 | 4.0 | 6.0 | 0.00 | 0.00 | 0.00 | 78 | 1014.1 |
| 20260902070052 | 86 | 250 | 3.0 | 7.0 | 0.00 | 0.00 | 0.00 | 79 | 1014.1 |
| 20260902064600 | 86 | 226 | 2.0 | 7.0 | 0.00 | 0.00 | 0.00 | 79 | 1014.2 |
| 20260902063053 | 86 | 250 | 2.0 | 6.0 | 0.00 | 0.00 | 0.00 | 79 | 1014.2 |
| 20260902061604 | 86 | 254 | 4.0 | 9.0 | 0.00 | 0.00 | 0.00 | 80 | 1014.3 |
| 20260902060056 | 87 | 246 | 4.0 | 9.0 | 0.00 | 0.00 | 0.00 | 79 | 1014.3 |
| 20260902054553 | 87 | 247 | 4.0 | 8.0 | 0.00 | 0.00 | 0.00 | 77 | 1014.1 |
| 20260902053050 | 87 | 298 | 1.0 | 5.0 | 0.00 | 0.00 | 0.00 | 75 | 1014.4 |
| 20260902051549 | 87 | 292 | 0.0 | 4.0 | 0.00 | 0.00 | 0.00 | 75 | 1014.4 |
| 20260902044548 | 87 | 282 | 1.0 | 4.0 | 0.00 | 0.00 | 0.00 | 74 | 1014.4 |
| 20260902043050 | 87 | 240 | 3.0 | 7.0 | 0.00 | 0.00 | 0.00 | 74 | 1014.4 |
| 20260902041546 | 87 | 252 | 2.0 | 5.0 | 0.00 | 0.00 | 0.00 | 73 | 1014.2 |
| 20260902040045 | 87 | 267 | 2.0 | 6.0 | 0.00 | 0.00 | 0.00 | 74 | 1014.0 |
| 20260902034544 | 87 | 248 | 3.0 | 8.0 | 0.00 | 0.00 | 0.00 | 75 | 1013.7 |
| 20260902033046 | 87 | 247 | 5.0 | 10.0 | 0.00 | 0.00 | 0.00 | 76 | 1013.5 |
| 20260902031543 | 87 | 263 | 5.0 | 9.0 | 0.00 | 0.00 | 0.00 | 75 | 1013.3 |
| 20260902030043 | 87 | 248 | 2.0 | 7.0 | 0.00 | 0.00 | 0.00 | 75 | 1013.0 |
| 20260902024543 | 87 | 259 | 4.0 | 7.0 | 0.00 | 0.00 | 0.00 | 74 | 1012.8 |
| 20260902023046 | 87 | 242 | 4.0 | 8.0 | 0.00 | 0.00 | 0.00 | 73 | 1012.4 |
| 20260902020041 | 88 | 261 | 3.0 | 8.0 | 0.00 | 0.00 | 0.00 | 73 | 1012.0 |
| 20260902014544 | 88 | 286 | 4.0 | 7.0 | 0.00 | 0.00 | 0.00 | 73 | 1012.1 |
| 20260902013041 | 88 | 259 | 2.0 | 8.0 | 0.00 | 0.00 | 0.00 | 72 | 1012.1 |
| 20260902011548 | 89 | 275 | 2.0 | 8.0 | 0.00 | 0.00 | 0.00 | 71 | 1011.9 |
| 20260902010039 | 89 | 273 | 4.0 | 8.0 | 0.00 | 0.00 | 0.00 | 70 | 1011.9 |
| 20260902004539 | 90 | 264 | 4.0 | 9.0 | 0.00 | 0.00 | 0.00 | 67 | 1011.7 |
| 20260902003039 | 91 | 234 | 4.0 | 9.0 | 0.00 | 0.00 | 0.00 | 64 | 1011.6 |
| 20260902001542 | 92 | 251 | 5.0 | 7.0 | 0.00 | 0.00 | 0.00 | 63 | 1011.4 |
| 20260902000045 | 92 | 238 | 4.0 | 8.0 | 0.00 | 0.00 | 0.00 | 61 | 1011.2 |
| 20260901234537 | 93 | 246 | 5.0 | 9.0 | 0.00 | 0.00 | 0.00 | 60 | 1011.2 |
| 20260901233037 | 94 | 265 | 4.0 | 10.0 | 0.00 | 0.00 | 0.00 | 60 | 1011.2 |
| 20260901231536 | 94 | 232 | 5.0 | 9.0 | 0.00 | 0.00 | 0.00 | 59 | 1011.0 |
| 20260901230036 | 94 | 259 | 4.0 | 8.0 | 0.00 | 0.00 | 0.00 | 60 | 1010.9 |
| 20260901224535 | 95 | 256 | 1.0 | 9.0 | 0.00 | 0.00 | 0.00 | 61 | 1010.8 |
| 20260901223033 | 96 | 202 | 4.0 | 9.0 | 0.00 | 0.00 | 0.00 | 59 | 1011.0 |
| 20260901221536 | 96 | 244 | 4.0 | 8.0 | 0.00 | 0.00 | 0.00 | 61 | 1011.1 |
| 20260901220030 | 96 | 219 | 5.0 | 10.0 | 0.00 | 0.00 | 0.00 | 60 | 1011.2 |
| 20260901214540 | 96 | 263 | 3.0 | 7.0 | 0.00 | 0.00 | 0.00 | 62 | 1011.2 |
| 20260901213028 | 97 | 223 | 4.0 | 10.0 | 0.00 | 0.00 | 0.00 | 58 | 1011.4 |
| 20260901211526 | 98 | 333 | 2.0 | 8.0 | 0.00 | 0.00 | 0.00 | 59 | 1011.5 |
| 20260901210025 | 98 | 259 | 1.0 | 6.0 | 0.00 | 0.00 | 0.00 | 59 | 1011.9 |
| 20260901204532 | 98 | 225 | 1.0 | 5.0 | 0.00 | 0.00 | 0.00 | 60 | 1012.0 |
| 20260901203025 | 98 | 276 | 3.0 | 7.0 | 0.00 | 0.00 | 0.00 | 59 | 1012.2 |
| 20260901201521 | 98 | 162 | 2.0 | 6.0 | 0.00 | 0.00 | 0.00 | 60 | 1012.3 |
| 20260901200021 | 98 | 190 | 3.0 | 6.0 | 0.00 | 0.00 | 0.00 | 59 | 1012.4 |
| 20260901194520 | 98 | 201 | 2.0 | 6.0 | 0.00 | 0.00 | 0.00 | 58 | 1012.7 |
| 20260901193019 | 98 | 277 | 0.0 | 6.0 | 0.00 | 0.00 | 0.00 | 60 | 1012.8 |
| 20260901191533 | 97 | 227 | 1.0 | 8.0 | 0.00 | 0.00 | 0.00 | 62 | 1013.1 |
| 20260901190015 | 96 | 342 | 1.0 | 5.0 | 0.00 | 0.00 | 0.00 | 64 | 1013.4 |
| 20260901184514 | 95 | 208 | 1.0 | 4.0 | 0.00 | 0.00 | 0.00 | 65 | 1013.6 |
| 20260901183015 | 94 | 156 | 2.0 | 5.0 | 0.00 | 0.00 | 0.00 | 65 | 1013.6 |
| 20260901181512 | 95 | 234 | 1.0 | 6.0 | 0.00 | 0.00 | 0.00 | 64 | 1013.8 |
| 20260901180011 | 96 | 194 | 3.0 | 5.0 | 0.00 | 0.00 | 0.00 | 62 | 1013.9 |
| 20260901174508 | 95 | 248 | 1.0 | 4.0 | 0.00 | 0.00 | 0.00 | 62 | 1013.9 |
| 20260901173007 | 95 | 208 | 1.0 | 3.0 | 0.00 | 0.00 | 0.00 | 64 | 1014.0 |
| 20260901171505 | 95 | 197 | 0.0 | 2.0 | 0.00 | 0.00 | 0.00 | 65 | 1013.9 |
| 20260901170002 | 93 | 208 | 0.0 | 3.0 | 0.00 | 0.00 | 0.00 | 67 | 1013.8 |
| 20260901164600 | 93 | 202 | 1.0 | 3.0 | 0.00 | 0.00 | 0.00 | 66 | 1013.9 |
| 20260901163102 | 92 | 201 | 0.0 | 7.0 | 0.00 | 0.00 | 0.00 | 67 | 1013.9 |
| 20260901161602 | 89 | 204 | 0.0 | 4.0 | 0.00 | 0.00 | 0.00 | 69 | 1013.9 |
| 20260901160051 | 89 | 233 | 0.0 | 5.0 | 0.00 | 0.00 | 0.00 | 71 | 1013.8 |
| 20260901154611 | 87 | 175 | 0.0 | 4.0 | 0.00 | 0.00 | 0.00 | 73 | 1013.7 |
| 20260901153048 | 86 | 314 | 0.0 | 2.0 | 0.00 | 0.00 | 0.00 | 75 | 1013.7 |
| 20260901151541 | 85 | 325 | 1.0 | 3.0 | 0.00 | 0.00 | 0.00 | 75 | 1013.7 |
| 20260901150037 | 84 | 355 | 3.0 | 5.0 | 0.00 | 0.00 | 0.00 | 75 | 1013.4 |
| 20260901144537 | 84 | 9 | 1.0 | 7.0 | 0.00 | 0.00 | 0.00 | 77 | 1013.3 |
| 20260901143031 | 82 | 340 | 4.0 | 8.0 | 0.00 | 0.00 | 0.00 | 80 | 1013.3 |
| 20260901141528 | 82 | 13 | 5.0 | 7.0 | 0.00 | 0.00 | 0.00 | 80 | 1013.1 |
| 20260901140025 | 81 | 9 | 5.0 | 8.0 | 0.00 | 0.00 | 0.00 | 82 | 1012.8 |
| 20260901134524 | 79 | 360 | 4.0 | 7.0 | 0.00 | 0.00 | 0.00 | 84 | 1012.6 |
| 20260901133023 | 78 | 342 | 5.0 | 8.0 | 0.00 | 0.00 | 0.00 | 85 | 1012.7 |
| 20260901131524 | 77 | 337 | 6.0 | 9.0 | 0.00 | 0.00 | 0.00 | 85 | 1012.4 |
| 20260901130020 | 77 | 326 | 5.0 | 8.0 | 0.00 | 0.00 | 0.00 | 85 | 1012.5 |
| 20260901124535 | 77 | 339 | 5.0 | 9.0 | 0.00 | 0.00 | 0.00 | 85 | 1012.4 |
| 20260901123018 | 77 | 344 | 4.0 | 7.0 | 0.00 | 0.00 | 0.00 | 85 | 1012.3 |
| 20260901121516 | 77 | 5 | 4.0 | 6.0 | 0.00 | 0.00 | 0.00 | 84 | 1012.3 |
| 20260901120014 | 78 | 13 | 4.0 | 6.0 | 0.00 | 0.00 | 0.00 | 82 | 1012.2 |
| 20260901114514 | 79 | 327 | 4.0 | 5.0 | 0.00 | 0.00 | 0.00 | 80 | 1012.2 |
| 20260901113014 | 79 | 345 | 0.0 | 2.0 | 0.00 | 0.00 | 0.00 | 78 | 1012.1 |
| 20260901111513 | 80 | 360 | 0.0 | 1.0 | 0.00 | 0.00 | 0.00 | 79 | 1012.2 |
| 20260901104511 | 79 | 339 | 4.0 | 5.0 | 0.00 | 0.00 | 0.00 | 79 | 1012.2 |
| 20260901103122 | 79 | 351 | 4.0 | 6.0 | 0.00 | 0.00 | 0.00 | 80 | 1012.3 |
| 20260901101509 | 78 | 360 | 4.0 | 6.0 | 0.00 | 0.00 | 0.00 | 81 | 1012.1 |
| 20260901100050 | 78 | 338 | 4.0 | 6.0 | 0.00 | 0.00 | 0.00 | 82 | 1012.2 |
| 20260901094515 | 78 | 355 | 3.0 | 6.0 | 0.00 | 0.00 | 0.00 | 82 | 1012.4 |
| 20260901093005 | 78 | 355 | 4.0 | 6.0 | 0.00 | 0.00 | 0.00 | 82 | 1012.4 |
| 20260901091502 | 79 | 342 | 5.0 | 7.0 | 0.00 | 0.00 | 0.00 | 81 | 1012.5 |
| 20260901090006 | 79 | 348 | 5.0 | 7.0 | 0.00 | 0.00 | 0.00 | 80 | 1012.6 |
| 20260901084607 | 79 | 360 | 4.0 | 7.0 | 0.00 | 0.00 | 0.00 | 80 | 1012.6 |
| 20260901084502 | 79 | 349 | 4.0 | 7.0 | 0.00 | 0.00 | 0.00 | 80 | 1012.6 |
| 20260901083106 | 79 | 360 | 4.0 | 6.0 | 0.00 | 0.00 | 0.00 | 79 | 1012.7 |
| 20260901081557 | 79 | 355 | 2.0 | 4.0 | 0.00 | 0.00 | 0.00 | 79 | 1012.7 |
| 20260901074553 | 79 | 5 | 2.0 | 5.0 | 0.00 | 0.00 | 0.00 | 82 | 1013.2 |